When you browse on this site, cookies collect data to enhance your experience and personalize the content and advertising you see.
Visit our Privacy Policy to learn more. By continuing to use the site, you agree to this use of cookies and data.
  • în România
  • Lista ţărilor
  • Pe 7 zile
  • Temperatura apei
  • Hartă satelitară
  • Meteo pe hartă
  • Widget-uri
  • user-avatar
    Intrare

    Meteo pe oră la Qui Nhon

    Astăzi, 22 Martie, Vineri

    Timp Temperatura Precipitaţii Vânt Presiune Umiditate
    00:00 +27°C° 0 mm 2 m/s 756 mmHg 91%
    01:00 +26°C° 0 mm 2 m/s 756 mmHg 91%
    02:00 +26°C° 0 mm 2 m/s 756 mmHg 91%
    03:00 +26°C° 0 mm 2 m/s 756 mmHg 92%
    04:00 +26°C° 0 mm 2 m/s 756 mmHg 92%
    05:00 +27°C° 0 mm 2 m/s 756 mmHg 88%
    06:00 +27°C° 0 mm 2 m/s 757 mmHg 84%
    07:00 +28°C° 0 mm 2 m/s 757 mmHg 81%
    08:00 +30°C° 0 mm 2 m/s 757 mmHg 71%
    09:00 +32°C° 0 mm 2 m/s 757 mmHg 62%
    10:00 +36°C° 0 mm 3 m/s 757 mmHg 53%
    11:00 +36°C° 0 mm 3 m/s 756 mmHg 53%
    12:00 +36°C° 0 mm 4 m/s 756 mmHg 53%
    13:00 +37°C° 0 mm 4 m/s 755 mmHg 53%
    14:00 +36°C° 0 mm 4 m/s 755 mmHg 56%
    15:00 +35°C° 0 mm 4 m/s 754 mmHg 60%
    16:00 +34°C° 0 mm 4 m/s 754 mmHg 64%
    17:00 +32°C° 0 mm 4 m/s 754 mmHg 72%
    18:00 +29°C° 0 mm 3 m/s 755 mmHg 80%
    19:00 +28°C° 0 mm 3 m/s 755 mmHg 89%
    20:00 +28°C° 0 mm 3 m/s 756 mmHg 90%
    21:00 +27°C° 0 mm 3 m/s 756 mmHg 92%
    22:00 +27°C° 0 mm 2 m/s 757 mmHg 94%
    23:00 +27°C° 0 mm 2 m/s 757 mmHg 94%

    Mâine, 23 Martie, Sâmbătă

    Timp Temperatura Precipitaţii Vânt Presiune Umiditate
    00:00 +27°C° 0 mm 2 m/s 757 mmHg 94%
    01:00 +27°C° 0 mm 2 m/s 756 mmHg 94%
    02:00 +26°C° 0 mm 2 m/s 756 mmHg 94%
    03:00 +26°C° 0 mm 2 m/s 756 mmHg 94%
    04:00 +26°C° 0 mm 1 m/s 756 mmHg 94%
    05:00 +27°C° 0 mm 1 m/s 756 mmHg 91%
    06:00 +27°C° 0 mm 1 m/s 756 mmHg 88%
    07:00 +28°C° 0 mm 1 m/s 757 mmHg 85%
    08:00 +30°C° 0 mm 2 m/s 757 mmHg 76%
    09:00 +31°C° 0 mm 2 m/s 757 mmHg 67%
    10:00 +34°C° 0 mm 3 m/s 758 mmHg 57%
    11:00 +35°C° 0 mm 3 m/s 757 mmHg 56%
    12:00 +35°C° 0 mm 4 m/s 757 mmHg 55%
    13:00 +35°C° 0 mm 4 m/s 756 mmHg 54%
    14:00 +35°C° 0 mm 4 m/s 755 mmHg 59%
    15:00 +34°C° 0 mm 4 m/s 755 mmHg 63%
    16:00 +33°C° 0 mm 4 m/s 754 mmHg 68%
    17:00 +30°C° 0 mm 3 m/s 755 mmHg 75%
    18:00 +29°C° 0 mm 3 m/s 756 mmHg 82%
    19:00 +28°C° 0 mm 2 m/s 756 mmHg 90%
    20:00 +27°C° 0.1 mm 2 m/s 757 mmHg 90%
    21:00 +27°C° 0.1 mm 2 m/s 757 mmHg 91%
    22:00 +27°C° 0.1 mm 2 m/s 758 mmHg 92%
    23:00 +27°C° 0.2 mm 2 m/s 758 mmHg 92%

    Poimâine, 24 Martie, Duminică

    Timp Temperatura Precipitaţii Vânt Presiune Umiditate
    00:00 +27°C° 0.2 mm 1 m/s 757 mmHg 92%
    01:00 +27°C° 0.2 mm 1 m/s 757 mmHg 92%
    02:00 +27°C° 0.2 mm 1 m/s 757 mmHg 92%
    03:00 +26°C° 0.2 mm 1 m/s 757 mmHg 92%
    04:00 +26°C° 0.2 mm 1 m/s 756 mmHg 91%
    05:00 +27°C° 0.3 mm 1 m/s 757 mmHg 89%
    06:00 +27°C° 0.3 mm 2 m/s 757 mmHg 87%
    07:00 +28°C° 0.3 mm 2 m/s 758 mmHg 86%
    08:00 +29°C° 0.6 mm 3 m/s 758 mmHg 82%
    09:00 +29°C° 0.6 mm 3 m/s 759 mmHg 79%
    10:00 +30°C° 0.6 mm 4 m/s 759 mmHg 75%
    11:00 +32°C° 0.1 mm 4 m/s 758 mmHg 71%
    12:00 +32°C° 0.1 mm 4 m/s 757 mmHg 66%
    13:00 +33°C° 0.1 mm 4 m/s 756 mmHg 62%
    14:00 +33°C° 0 mm 4 m/s 756 mmHg 63%
    15:00 +31°C° 0 mm 3 m/s 755 mmHg 64%
    16:00 +31°C° 0 mm 3 m/s 755 mmHg 65%
    17:00 +29°C° 0 mm 3 m/s 756 mmHg 72%
    18:00 +28°C° 0 mm 2 m/s 756 mmHg 79%
    19:00 +27°C° 0 mm 1 m/s 757 mmHg 86%
    20:00 +26°C° 0 mm 1 m/s 758 mmHg 87%
    21:00 +26°C° 0 mm 1 m/s 758 mmHg 89%
    22:00 +24°C° 0 mm 0 m/s 759 mmHg 90%
    23:00 +24°C° 0 mm 0 m/s 758 mmHg 91%

    25 Martie, Luni

    Timp Temperatura Precipitaţii Vânt Presiune Umiditate
    00:00 +23°C° 0 mm 0 m/s 758 mmHg 91%
    01:00 +23°C° 0 mm 0 m/s 757 mmHg 92%
    02:00 +25°C° 0 mm 1 m/s 757 mmHg 93%
    03:00 +25°C° 0 mm 1 m/s 757 mmHg 93%
    04:00 +25°C° 0 mm 1 m/s 757 mmHg 94%
    05:00 +25°C° 0 mm 1 m/s 757 mmHg 92%
    06:00 +26°C° 0 mm 1 m/s 758 mmHg 89%
    07:00 +26°C° 0 mm 1 m/s 758 mmHg 87%
    08:00 +28°C° 0 mm 1 m/s 759 mmHg 77%
    09:00 +30°C° 0 mm 1 m/s 759 mmHg 67%
    10:00 +32°C° 0 mm 1 m/s 759 mmHg 57%
    11:00 +34°C° 0 mm 2 m/s 758 mmHg 56%
    12:00 +34°C° 0 mm 2 m/s 757 mmHg 56%
    13:00 +34°C° 0 mm 3 m/s 756 mmHg 56%
    14:00 +34°C° 0 mm 3 m/s 756 mmHg 58%
    15:00 +33°C° 0 mm 3 m/s 756 mmHg 61%
    16:00 +31°C° 0 mm 3 m/s 755 mmHg 63%
    17:00 +30°C° 0 mm 3 m/s 756 mmHg 71%
    18:00 +28°C° 0 mm 2 m/s 757 mmHg 78%
    19:00 +27°C° 0 mm 1 m/s 757 mmHg 86%
    20:00 +26°C° 0 mm 1 m/s 758 mmHg 87%
    21:00 +26°C° 0 mm 1 m/s 759 mmHg 89%
    22:00 +26°C° 0 mm 1 m/s 759 mmHg 90%
    23:00 +26°C° 0 mm 1 m/s 759 mmHg 91%

    26 Martie, Marţi

    Timp Temperatura Precipitaţii Vânt Presiune Umiditate
    00:00 +25°C° 0 mm 1 m/s 758 mmHg 92%
    01:00 +25°C° 0 mm 1 m/s 758 mmHg 93%
    02:00 +25°C° 0 mm 1 m/s 758 mmHg 93%
    03:00 +25°C° 0 mm 1 m/s 758 mmHg 94%
    04:00 +25°C° 0 mm 1 m/s 758 mmHg 95%
    05:00 +25°C° 0 mm 1 m/s 758 mmHg 91%
    06:00 +26°C° 0 mm 1 m/s 759 mmHg 88%
    07:00 +27°C° 0 mm 1 m/s 759 mmHg 85%
    08:00 +28°C° 0 mm 1 m/s 760 mmHg 77%
    09:00 +30°C° 0 mm 1 m/s 760 mmHg 69%
    10:00 +32°C° 0 mm 1 m/s 760 mmHg 61%
    11:00 +34°C° 0 mm 2 m/s 759 mmHg 58%
    12:00 +34°C° 0 mm 3 m/s 758 mmHg 56%
    13:00 +35°C° 0 mm 3 m/s 757 mmHg 53%
    14:00 +34°C° 0 mm 3 m/s 757 mmHg 57%
    15:00 +33°C° 0 mm 3 m/s 757 mmHg 60%
    16:00 +33°C° 0 mm 4 m/s 757 mmHg 64%
    17:00 +30°C° 0 mm 3 m/s 757 mmHg 71%
    18:00 +28°C° 0 mm 2 m/s 758 mmHg 79%
    19:00 +27°C° 0 mm 1 m/s 758 mmHg 87%
    20:00 +26°C° 0 mm 1 m/s 759 mmHg 88%
    21:00 +26°C° 0 mm 1 m/s 759 mmHg 89%
    22:00 +24°C° 0 mm 0 m/s 760 mmHg 90%
    23:00 +23°C° 0 mm 0 m/s 759 mmHg 91%

    27 Martie, Miercuri

    Timp Temperatura Precipitaţii Vânt Presiune Umiditate
    00:00 +25°C° 0 mm 1 m/s 759 mmHg 92%
    01:00 +25°C° 0 mm 1 m/s 759 mmHg 93%
    02:00 +25°C° 0 mm 1 m/s 758 mmHg 94%
    03:00 +25°C° 0 mm 1 m/s 758 mmHg 94%
    04:00 +24°C° 0 mm 1 m/s 758 mmHg 94%
    05:00 +25°C° 0 mm 1 m/s 759 mmHg 91%
    06:00 +26°C° 0 mm 1 m/s 759 mmHg 88%
    07:00 +26°C° 0 mm 1 m/s 759 mmHg 85%
    08:00 +28°C° 0 mm 1 m/s 759 mmHg 76%
    09:00 +30°C° 0 mm 1 m/s 759 mmHg 67%
    10:00 +33°C° 0 mm 1 m/s 759 mmHg 58%
    11:00 +34°C° 0 mm 2 m/s 758 mmHg 58%
    12:00 +34°C° 0 mm 2 m/s 758 mmHg 57%
    13:00 +35°C° 0 mm 3 m/s 757 mmHg 57%
    14:00 +34°C° 0 mm 3 m/s 757 mmHg 60%
    15:00 +33°C° 0 mm 3 m/s 756 mmHg 63%
    16:00 +33°C° 0 mm 3 m/s 756 mmHg 67%
    17:00 +30°C° 0 mm 3 m/s 757 mmHg 73%
    18:00 +29°C° 0 mm 2 m/s 757 mmHg 80%
    19:00 +27°C° 0 mm 1 m/s 758 mmHg 87%
    20:00 +27°C° 0 mm 1 m/s 758 mmHg 89%
    21:00 +27°C° 0 mm 1 m/s 758 mmHg 90%
    22:00 +27°C° 0 mm 1 m/s 758 mmHg 92%
    23:00 +27°C° 0 mm 1 m/s 758 mmHg 92%
    Arată mai mult